Location: Ast
(49.3798°N, 12.6486°E)
Time: 14:31:39
(UTC+00:00)

Daily predictions for brighter satellites

Satellite Brightness Start Highest point End
(mag) Time Altitude Azimuth Time Altitude Azimuth Time Altitude Azimuth
Cosmos 1674 3.0 18:06:02 10° NNW 18:09:49 71° W 18:13:31 10° S
Meteor 1-22 Rocket 4.2 18:04:51 10° S 18:09:58 52° E 18:15:06 10° NNE
Cosmos 1110 Rocket 4.1 18:04:40 10° NNW 18:09:59 87° WSW 18:15:11 10° SSE
STARLINK-1130 (DARKSAT) 3.9 18:05:54 10° WNW 18:10:02 60° NNE 18:14:08 10° E
STARLINK-1216 4.0 18:06:31 10° SW 18:10:22 43° SE 18:14:14 10° ENE
STARLINK-1100 3.8 18:06:25 10° WNW 18:10:29 67° SSW 18:14:32 10° SE
ARGOS Delta rocket 4.1 18:05:33 10° SSE 18:10:37 63° ENE 18:15:58 10° N
Aureole 2 Rocket 4.4 18:09:05 10° NNE 18:11:08 15° NE 18:13:10 10° E
ATLAS CENTAUR R/B 4.0 18:08:28 10° WNW 18:11:21 17° NNW 18:14:08 10° NNE
IRS-1A Rocket 4.4 18:05:55 10° SSE 18:11:30 65° ENE 18:17:15 10° N
Cosmos 1553 Rocket 4.1 18:06:43 10° S 18:12:47 85° W 18:18:56 10° N
NOSS 2-1 (E) 3.6 18:09:38 10° SW 18:13:01 64° NW 18:16:52 10° NE
Cosmos 2219 Rocket 3.7 18:07:47 10° WSW 18:13:06 41° NW 18:18:27 10° NNE
STARLINK-1084 3.9 18:10:53 10° WNW 18:15:01 62° NNE 18:19:07 10° E
STARLINK-1237 3.9 18:11:15 10° SW 18:15:08 46° SE 18:19:02 10° ENE
STARLINK-1083 3.9 18:11:11 10° WNW 18:15:13 63° SSW 18:19:15 10° SE
KORONAS-FOTON 4.3 18:13:00 10° NNW 18:16:49 65° W 18:20:34 10° S
Cosmos 1943 Rocket 2.9 18:12:36 10° NNW 18:17:42 36° NE 18:22:49 10° ESE
STARLINK-1209 2.6 18:14:56 10° WSW 18:17:51 84° SSE 18:20:47 10° ENE
ATLAS 2AS CENTAUR R/B 4.1 18:12:38 10° NW 18:19:37 33° NNE 18:26:10 10° E
STARLINK-1202 3.8 18:15:56 10° SW 18:19:51 49° SSE 18:23:47 10° ENE
STARLINK-1125 4.0 18:15:55 10° WNW 18:19:57 59° SSW 18:23:59 10° SE
STARLINK-1098 3.9 18:15:53 10° WNW 18:20:00 64° NNE 18:24:04 10° E
STARLINK-1228 2.6 18:17:08 10° WSW 18:20:01 87° SSE 18:22:55 10° ENE
SL-14 R/B 3.4 18:16:54 10° N 18:20:56 57° ENE 18:24:53 10° SSE
Cosmos 1980 4.1 18:18:36 10° SW 18:24:17 73° WNW 18:30:00 10° NNE
STARLINK-1109 4.1 18:20:30 10° WNW 18:24:31 56° SSW 18:28:31 10° SE
SL-8 R/B 3.7 18:20:09 10° W 18:24:56 81° S 18:29:36 11° E
STARLINK-1123 3.8 18:20:52 10° WNW 18:24:59 66° NNE 18:28:51 12° E
ERBS 3.4 18:23:26 10° W 18:26:42 44° NNW 18:29:58 10° NE
STARLINK-1246 3.7 18:22:54 10° SW 18:26:54 55° SSE 18:30:55 10° ENE
Cosmos 2315 Rocket 4.2 18:22:58 10° SSE 18:29:00 51° E 18:35:08 10° NNE
STARLINK-1091 4.2 18:25:20 10° WNW 18:29:19 52° SSW 18:33:17 10° SE
Cosmos 1766 3.6 18:25:21 10° SSW 18:29:20 72° W 18:33:20 10° N
STARLINK-1097 3.8 18:25:50 10° WNW 18:29:59 69° NNE 18:33:37 13° E
ADEOS Rocket 3.7 18:23:51 10° N 18:30:41 65° WNW 18:36:46 10° SSW
USA 234 3.8 18:24:56 10° ENE 18:30:57 37° SE 18:36:55 10° SSW
STARLINK-67 2.8 18:29:39 10° W 18:32:11 59° NNW 18:34:46 10° ENE
Resurs 1-3 4.4 18:28:20 10° SE 18:32:14 32° ENE 18:36:10 10° N
STARLINK-1201 2.9 18:29:24 10° WSW 18:32:39 82° SSE 18:35:57 10° ENE
Cosmos 1626 2.0 18:29:43 10° N 18:33:27 75° E 18:37:08 10° SSE
Meteor 2-8 Rocket 4.4 18:27:57 10° S 18:34:04 80° E 18:40:14 10° NNE
STARLINK-1224 3.6 18:30:06 10° SW 18:34:06 60° SSE 18:38:07 10° ENE
STARLINK-1099 3.7 18:30:49 10° WNW 18:34:58 71° NNE 18:38:25 15° ESE
H-2A R/B 2.1 18:30:16 10° SSE 18:35:35 86° ENE 18:40:48 10° NNW
STARLINK-1203 3.5 18:31:46 10° SW 18:35:42 65° SSE 18:39:40 10° ENE
SL-16 R/B 2.2 18:32:39 10° S 18:38:11 58° ESE 18:43:45 10° NE
STARLINK-1225 3.6 18:34:42 10° SW 18:38:44 64° SSE 18:42:46 10° ENE
STARLINK-1072 4.4 18:35:52 10° WNW 18:39:43 44° SW 18:43:19 11° SE
STARLINK-1104 3.7 18:35:48 10° WNW 18:39:58 74° NNE 18:43:12 16° ESE
SL-08 RB Rocket 3.8 18:35:46 10° SSE 18:40:12 59° ENE 18:44:43 10° N
TSX-5 4.3 18:34:57 10° NNW 18:40:34 78° NE 18:44:38 11° SE
Cosmos 2333 Rocket 4.4 18:36:01 10° WSW 18:40:52 28° NW 18:45:44 10° NNE
Resurs 01 Rocket 2.6 18:38:55 14° ESE 18:42:01 29° ENE 18:45:50 10° N
STARLINK-1230 3.5 18:39:26 10° SW 18:43:27 68° SSE 18:47:31 10° ENE
STARLINK-1096 4.5 18:40:29 10° WNW 18:44:18 41° SW 18:47:45 12° SSE
STARLINK-1144 3.6 18:40:48 10° WNW 18:44:57 77° NNE 18:47:59 18° ESE
Meteor 2-15 4.5 18:39:51 10° S 18:45:46 59° E 18:51:43 10° NNE
STARLINK-1233 2.9 18:42:57 10° WSW 18:46:04 81° NNW 18:48:52 13° ENE
FREGAT/IRIS 2.7 18:43:34 10° S 18:46:16 65° WSW 18:49:00 10° NNW
STARLINK-1212 2.9 18:43:24 10° WSW 18:46:31 81° NNW 18:49:17 13° ENE
STARLINK-1105 2.9 18:43:50 10° WSW 18:46:59 80° NNW 18:49:44 13° ENE
Cosmos 1302 Rocket 4.1 18:42:04 10° NNW 18:47:22 87° WSW 18:52:40 10° SSE
STARLINK-1206 2.9 18:44:20 10° WSW 18:47:27 80° NNW 18:50:09 13° ENE
STARLINK-1247 2.9 18:44:46 10° WSW 18:47:54 79° NNW 18:50:34 13° ENE
STARLINK-1227 2.9 18:45:12 10° WSW 18:48:19 79° NNW 18:51:02 13° ENE
STARLINK-1243 3.5 18:44:24 10° SW 18:48:27 72° SSE 18:52:21 11° ENE
STARLINK-1218 2.9 18:45:41 10° WSW 18:48:48 78° NNW 18:51:27 14° ENE
Abrixas rocket 3.7 18:47:04 10° SSW 18:49:06 17° SSE 18:49:06 17° SSE
Cosmos 1992 Rocket 4.5 18:44:14 10° NNW 18:49:14 44° ENE 18:52:57 17° SE
STARLINK-1226 2.9 18:46:07 10° WSW 18:49:15 78° NNW 18:51:53 14° ENE
STARLINK-1254 3.0 18:46:33 10° WSW 18:49:41 78° NNW 18:52:20 14° ENE
SeaSat 1 4.3 18:45:29 10° NNE 18:49:55 34° NW 18:54:20 10° WSW
STARLINK-1103 3.6 18:45:46 10° WNW 18:49:55 81° NNE 18:52:45 20° ESE
STARLINK-1215 2.9 18:47:02 10° WSW 18:50:09 77° NNW 18:52:44 14° ENE
Cosmos 1709 Rocket 4.0 18:44:01 10° N 18:50:17 87° W 18:56:26 10° S
STARLINK-1231 2.9 18:47:28 10° WSW 18:50:36 77° NNW 18:53:10 14° ENE
Cosmos 1953 3.1 18:47:34 10° SSE 18:51:03 30° E 18:54:33 10° NNE
STARLINK-1232 3.0 18:48:23 10° WSW 18:51:30 76° NNW 18:54:03 15° ENE
STARLINK-1217 3.0 18:48:50 10° WSW 18:51:57 75° NNW 18:54:28 15° ENE
STARLINK-1208 3.0 18:49:15 10° WSW 18:52:23 75° NNW 18:54:56 15° ENE
STARLINK-1229 3.0 18:49:44 10° WSW 18:52:51 75° NNW 18:55:20 15° ENE
STARLINK-1236 3.5 18:48:59 10° WSW 18:53:03 76° SSE 18:56:45 12° ENE
STARLINK-1271 3.0 18:50:11 10° WSW 18:53:18 74° NNW 18:55:46 15° ENE
STARLINK-1270 3.0 18:50:39 10° WSW 18:53:46 74° NNW 18:56:13 15° ENE
STARLINK-1154 3.0 18:51:06 10° WSW 18:54:13 73° NNW 18:56:39 16° ENE
STARLINK-1101 3.6 18:50:45 10° WNW 18:54:55 85° NNE 18:57:32 22° ESE
Cosmos 1269 Rocket 4.1 18:49:45 10° SSW 18:55:03 86° WNW 19:00:24 10° NNE
STARLINK-1197 3.0 18:52:00 10° WSW 18:55:07 73° NNW 18:57:31 16° ENE
STARLINK-1189 3.0 18:52:28 10° WSW 18:55:35 72° NNW 18:57:57 16° ENE
STARLINK-1187 3.1 18:53:18 10° WSW 18:56:26 67° NNW 18:58:50 16° ENE
STARLINK-1188 3.0 18:53:22 10° WSW 18:56:29 71° NNW 18:58:49 16° ENE
STARLINK-1198 3.0 18:53:22 10° WSW 18:56:29 71° NNW 18:58:49 16° ENE
SL-24 R/B 4.3 18:52:15 10° NNE 18:56:45 46° E 19:00:41 10° S
STARLINK-1235 3.3 18:54:02 10° W 18:57:09 62° NNW 18:59:33 16° ENE
CZ-4C R/B 4.3 18:52:51 10° WNW 18:57:38 26° NNW 19:03:11 10° NE
STARLINK-1199 3.1 18:55:18 10° WSW 18:58:25 70° NNW 19:00:44 17° ENE
STARLINK-1191 3.1 18:55:45 10° WSW 18:58:52 70° NNW 19:01:10 17° ENE
STARLINK-1210 3.1 18:56:12 10° WSW 18:59:20 69° NNW 19:01:36 17° ENE
STARLINK-1221 3.1 18:56:39 10° WSW 18:59:47 69° NNW 19:02:02 17° ENE
STARLINK-1102 3.6 18:55:43 10° WNW 18:59:53 88° NE 19:02:19 24° ESE
STARLINK-1219 3.1 18:57:07 10° WSW 19:00:14 69° NNW 19:02:29 18° ENE
STARLINK-1222 3.1 18:57:34 10° WSW 19:00:42 68° NNW 19:02:54 18° ENE
ISS -3.8 18:57:41 10° WNW 19:01:03 80° NNE 19:02:41 28° E
STARLINK-1211 3.1 18:58:01 10° WSW 19:01:08 68° NNW 19:03:20 18° ENE
STARLINK-1214 3.1 18:58:28 10° WSW 19:01:35 67° NNW 19:03:46 18° ENE
Cosmos 2297 4.3 18:56:15 10° NW 19:01:48 57° WSW 19:07:21 10° S
STARLINK-1245 3.1 18:58:57 10° WSW 19:02:03 67° NNW 19:04:11 19° ENE
STARLINK-1238 3.1 18:59:20 10° WSW 19:02:28 67° NNW 19:04:37 18° ENE
Cosmos 1455 Rocket 4.0 18:58:28 10° SSW 19:02:41 50° WNW 19:06:58 10° N
Cosmos 2251 Rocket 4.1 18:57:51 10° SSE 19:02:42 36° ESE 19:07:36 10° NE
STARLINK-1269 3.5 18:58:47 10° WSW 19:02:52 85° SSE 19:06:13 15° ENE
Cosmos 2074 Rocket 4.2 18:57:02 10° N 19:03:10 52° ENE 19:08:16 15° SSE
STARLINK-1205 3.2 19:00:16 10° WSW 19:03:22 66° NNW 19:05:26 19° ENE
BREEZE-M DEB (TANK) 3.7 18:55:56 10° W 19:03:33 89° SSW 19:05:20 26° E
STARLINK-1204 3.2 19:00:45 10° WSW 19:03:52 66° NNW 19:05:54 19° ENE
Cosmos 2084 Rocket 3.5 18:59:51 10° NW 19:04:20 73° NE 19:06:58 24° SE
STARLINK-1111 3.6 19:00:42 10° WNW 19:04:51 88° SSW 19:07:06 26° ESE
Cosmos 1703 4.4 19:04:17 10° NNE 19:07:40 26° ENE 19:08:26 25° E
STARLINK-1200 3.5 19:03:36 10° WSW 19:07:41 89° SSE 19:10:50 17° ENE
Cosmos 2237 Rocket 3.6 19:02:39 10° WSW 19:07:56 40° NW 19:13:16 10° NNE
CZ-2C R/B 2.9 19:03:27 10° NNE 19:08:23 42° E 19:13:16 10° SSE
Cosmos 1626 Rocket 3.9 19:04:46 10° NNW 19:09:10 68° W 19:13:29 10° S
STARLINK-1073 3.6 19:05:42 10° WNW 19:09:51 83° SSW 19:11:54 29° ESE
STARLINK-1192 3.5 19:08:21 10° WSW 19:12:26 87° NNW 19:15:24 18° ENE
STARLINK-1121 3.6 19:10:40 10° WNW 19:14:48 79° SSW 19:16:39 32° SE
Cosmos 292 Rocket 3.7 19:10:52 10° NNW 19:15:41 74° ENE 19:18:32 24° SSE
ARGOS 3.9 19:10:48 10° S 19:16:05 54° W 19:21:24 10° NNW
Cosmos 1602 Rocket 3.8 19:12:43 10° NNW 19:17:12 73° W 19:21:36 10° S
STARLINK-1244 3.6 19:13:17 10° WSW 19:17:23 84° NNW 19:20:08 20° ENE
Cosmos 1656 Rocket 4.4 19:12:44 10° NNW 19:18:05 39° NE 19:20:40 26° ESE
IRIDIUM 104 4.2 19:13:16 10° N 19:18:32 80° E 19:23:42 10° S
STARLINK-1106 3.6 19:15:37 10° WNW 19:19:46 75° SSW 19:21:25 35° SE
STARLINK-1138 3.6 19:17:52 10° WSW 19:21:59 80° NNW 19:24:34 22° ENE
MOS 1 Rocket 3.6 19:17:37 10° NNE 19:22:47 59° E 19:28:06 10° S
STARLINK-1234 3.6 19:20:04 10° W 19:22:56 46° NNW 19:24:01 30° NE
USA 186 4.1 19:20:33 10° SSW 19:23:29 26° W 19:26:22 10° NW
STARLINK-1112 3.7 19:20:38 10° WNW 19:24:46 71° SSW 19:26:14 38° SE
MetOp-A 4.3 19:21:25 10° S 19:26:42 75° WSW 19:32:05 10° NNW
STARLINK-1143 3.6 19:22:47 10° WSW 19:26:53 77° NNW 19:29:16 24° ENE
IRIDIUM 114 4.3 19:22:26 10° N 19:27:42 86° W 19:32:51 10° S
CZ-2C R/B 4.3 19:23:56 10° SSW 19:28:36 38° W 19:33:07 10° NNW
COSMOS 2455 4.2 19:23:55 10° NNW 19:28:56 26° NNE 19:32:01 18° ENE
STARLINK-1128 3.7 19:25:37 10° WNW 19:29:44 66° SSW 19:31:01 41° SE
Cosmos 1437 2.6 19:28:33 10° N 19:31:24 59° ENE 19:31:24 59° ENE
Cosmos 1470 3.8 19:28:32 10° SSW 19:32:16 46° WNW 19:36:04 10° N
Cosmos 1726 Rocket 4.1 19:33:42 37° E 19:33:43 37° E 19:37:48 10° NNE
STARLINK-1113 3.8 19:30:36 10° WNW 19:34:42 62° SSW 19:35:47 44° SSE
STARLINK-1241 3.7 19:31:10 10° WSW 19:35:12 71° NNW 19:37:12 29° ENE
SPOT 3 Rocket 4.1 19:30:04 10° S 19:35:13 58° W 19:40:22 10° NNW
Cosmos 1825 Rocket 3.5 19:31:51 10° N 19:36:17 73° E 19:37:53 38° SSE
NOSS 3-4 (A) 4.2 19:32:23 10° NW 19:38:58 50° NE 19:42:42 28° E
NOSS 3-4 (C) 4.2 19:32:29 10° NW 19:39:04 50° NE 19:42:48 28° E
STARLINK-1119 3.8 19:35:35 10° WNW 19:39:40 58° SSW 19:40:35 46° SSE
STARLINK-1239 3.8 19:36:06 10° WSW 19:40:09 69° NNW 19:41:56 31° ENE
Cosmos 2369 Rocket 2.2 19:34:35 10° NNW 19:40:20 83° WSW 19:43:14 30° SSE
Cosmos 2327 Rocket 4.5 19:34:59 10° N 19:41:15 69° ENE 19:44:38 29° SSE
Cosmos 1726 2.0 19:42:57 48° S 19:43:55 82° E 19:47:41 10° NNE
STARLINK-1114 3.9 19:40:37 10° WNW 19:44:40 55° SSW 19:45:24 47° S
STARLINK-1240 3.8 19:40:49 10° W 19:44:52 66° NNW 19:46:29 34° NE
Aureole 2 Rocket 2.8 19:41:50 10° NNW 19:45:18 59° WSW 19:45:56 48° SSW
Cosmos 1758 Rocket 3.6 19:41:40 10° NNW 19:46:04 77° W 19:47:54 34° S
Cosmos 2263 4.1 19:40:43 10° NNW 19:46:23 83° ENE 19:48:35 39° SE
Cosmos 1908 4.0 19:48:57 36° NE 19:48:57 36° NE 19:51:40 10° NNE
SAR-Lupe-2 4.0 19:44:40 10° NNE 19:47:28 46° NE 19:47:28 46° NE
NOSS 3-3 (A) 3.9 19:43:51 10° SSW 19:49:34 56° ESE 19:56:01 10° NE
STARLINK-1130 (DARKSAT) 4.0 19:45:35 10° WNW 19:49:37 51° SSW 19:50:10 47° S
STARLINK-1216 3.9 19:45:35 10° W 19:49:38 64° NNW 19:51:03 37° NE
NOSS 3-3 (C) 3.9 19:43:58 10° SSW 19:49:40 56° ESE 19:56:07 10° NE
Meteor 2-17 Rocket 4.4 19:45:03 10° N 19:51:12 70° ENE 19:53:46 36° SSE
Cosmos 1953 Rocket 3.5 19:48:07 10° N 19:52:34 74° ENE 19:53:22 58° SE
STARLINK-1209 4.0 19:50:13 10° WNW 19:52:48 38° NNW 19:52:48 38° NNW
Terra 3.1 19:53:53 25° ENE 19:53:53 25° ENE 19:57:44 10° N
STARLINK-1237 3.9 19:50:24 10° W 19:54:26 62° NNW 19:55:38 41° NE
STARLINK-1084 4.1 19:50:34 10° WNW 19:54:34 48° SW 19:54:56 46° SSW
Cosmos 2184 Rocket 4.2 19:48:48 10° NNW 19:55:08 74° W 19:59:37 20° S
STARLINK-1228 4.1 19:52:26 10° WNW 19:54:50 37° NNW 19:54:50 37° NNW
Spot 2 Rocket 3.4 19:55:41 46° SSE 19:57:13 78° ENE 20:02:22 10° NNW
STARLINK-1202 4.0 19:55:09 10° W 19:59:11 60° NNW 20:00:12 44° NE
STARLINK-1098 4.2 19:55:34 10° WNW 19:59:32 44° SW 19:59:43 44° SSW
Cosmos 1606 Rocket 3.4 19:59:07 53° S 20:00:08 84° E 20:04:37 10° N
Cosmos 1943 Rocket 3.0 19:56:19 10° NW 20:01:35 45° WSW 20:04:35 24° SSW
SPOT 1/Viking Rocket 3.6 20:00:50 51° ESE 20:01:43 58° ENE 20:06:51 10° N
ERBS 4.4 20:00:54 10° WNW 20:03:39 22° N 20:04:36 20° NNE
STARLINK-1123 4.3 20:00:34 10° WNW 20:04:29 41° SW 20:04:30 41° SW
Cosmos 1943 3.1 20:01:04 22° S 20:04:41 64° ESE 20:10:19 10° NNE
STARLINK-1246 4.1 20:02:22 10° W 20:06:25 58° NNW 20:07:11 48° NNE
Meteor 2-10 4.3 20:01:21 10° SSW 20:06:41 71° WNW 20:12:16 10° N
SL-8 R/B 3.7 20:02:40 10° W 20:07:22 60° SSW 20:07:34 59° S
STARLINK-1201 4.2 20:05:57 10° W 20:08:41 40° NNW 20:08:41 40° NNW
ATLAS 2AS CENTAUR R/B 2.9 20:04:10 10° NW 20:11:55 71° NE 20:14:22 45° ESE
Cosmos 1340 Rocket 4.4 20:15:29 26° NNE 20:15:29 26° NNE 20:17:27 10° NNE
STARLINK-1224 4.1 20:09:32 10° W 20:13:32 55° N 20:13:58 52° NNE
USA 234 3.2 20:07:49 10° ENE 20:14:23 84° NNW 20:20:56 10° WSW
STARLINK-1203 4.1 20:10:55 10° W 20:14:50 53° N 20:15:06 52° N
Cosmos 2181 Rocket 4.5 20:15:29 40° E 20:15:29 40° E 20:21:02 10° NNE
Cosmos 2154 Rocket 4.1 20:09:52 10° NNW 20:16:15 79° W 20:18:59 37° S
USA 245 4.1 20:15:17 55° S 20:16:29 82° WSW 20:22:24 10° NNW
STARLINK-1225 4.1 20:14:09 10° W 20:18:09 54° N 20:18:23 53° N
Resurs 01 Rocket 3.0 20:16:28 23° SW 20:18:26 35° W 20:22:30 10° NNW
Cosmos 1328 4.3 20:16:21 10° NNW 20:20:16 53° W 20:20:25 53° WSW
Cosmos 921 Rocket 3.9 20:18:14 10° N 20:21:21 38° NNE 20:21:21 38° NNE
SL-16 R/B 4.0 20:17:41 10° WSW 20:22:40 31° NW 20:27:40 10° NNE
STARLINK-1230 4.2 20:18:55 10° W 20:22:55 53° N 20:22:57 53° N
Cosmos 2228 3.4 20:22:39 53° WSW 20:23:19 61° WNW 20:27:37 10° N
Cosmos 967 Rocket 4.4 20:18:23 10° SSW 20:24:51 85° SE 20:31:23 10° NE
Cosmos 1953 4.4 20:24:08 10° SW 20:27:27 25° WNW 20:30:50 10° NNW
STARLINK-1243 4.3 20:24:00 10° W 20:27:50 52° NNW 20:27:50 52° NNW
Iridium 4 Rocket 4.4 20:26:12 10° N 20:28:55 31° NNE 20:28:55 31° NNE
Cosmos 962 Rocket 4.3 20:24:17 10° N 20:30:33 87° E 20:31:43 61° SSE
STARLINK-1236 4.4 20:28:35 10° W 20:32:12 50° NNW 20:32:12 50° NNW
Nadezhda 1 Rocket 4.3 20:29:47 21° SSW 20:34:14 67° WNW 20:40:37 10° N
SL-8 Rocket 3.9 20:30:12 10° N 20:36:30 68° ENE 20:37:01 65° ESE
ISS -1.1 20:34:43 10° W 20:35:39 16° W 20:35:39 16° W
Cosmos 2058 Rocket 3.5 20:42:38 60° NNW 20:42:38 60° NNW 20:46:30 10° N
SPOT 5 3.2 20:44:25 54° N 20:44:25 54° N 20:47:50 10° NNW
Cosmos 614 Rocket 4.3 20:44:49 57° NE 20:44:49 57° NE 20:49:00 10° NNE
Cosmos 1603 4.2 20:38:30 10° SW 20:44:02 58° WNW 20:49:37 10° NNE
Cosmos 2366 rocket 4.0 20:38:11 10° N 20:44:17 62° ENE 20:44:18 62° ENE
CZ-4C R/B 4.3 20:42:59 10° NW 20:48:19 26° NNE 20:53:35 13° ENE
ERS-1 Rocket 3.0 20:48:38 73° WNW 20:48:38 73° WNW 20:53:28 10° NNW
CZ-2C R/B 4.2 20:44:01 10° N 20:48:34 32° WNW 20:53:05 10° SW
Landsat 7 4.4 20:49:40 49° WSW 20:49:42 49° W 20:54:21 10° NNW
Cosmos 1980 Rocket 4.4 20:48:55 10° N 20:51:49 14° NNE 20:53:43 12° NE
Cosmos 1959 Rocket 4.4 20:53:26 10° N 20:59:50 81° E 20:59:53 81° E
Cosmos 1656 Rocket 4.4 20:56:25 10° NW 21:01:44 42° WSW 21:02:03 42° WSW
Aureole 1 Rocket 4.3 21:01:51 34° SSW 21:05:38 80° WNW 21:12:06 10° NNE
COSMOS 2455 2.9 21:09:38 10° NW 21:15:09 75° NNW 21:15:09 75° NNW
In-Cosmos 22 Rocket 4.5 21:14:58 10° NNW 21:20:10 69° NW 21:20:10 69° NW
Cosmos 2369 Rocket 4.4 21:20:27 10° WNW 21:23:26 15° W 21:25:03 13° WSW
Cosmos 1821 Rocket 4.5 21:22:10 10° N 21:27:28 52° NE 21:27:28 52° NE
NOSS 3-4 (A) 4.1 21:23:19 10° NW 21:30:07 55° WSW 21:30:09 55° SW
NOSS 3-4 (C) 4.1 21:23:25 10° NW 21:30:13 55° WSW 21:30:14 55° SW
Terra 3.1 21:32:46 37° NW 21:32:46 37° NW 21:35:59 10° NNW
ATLAS CENTAUR R/B 4.1 21:30:17 10° NNW 21:31:52 14° N 21:31:52 14° N
USA 234 4.0 21:50:50 10° ENE 21:57:04 49° N 22:03:18 10° W
ATLAS 2AS CENTAUR R/B 3.9 21:55:49 10° NW 22:01:48 33° WSW 22:01:48 33° WSW
Cosmos 1697 Rocket 3.8 22:06:18 10° NNW 22:10:12 40° N 22:10:12 40° N
SL-16 R/B 4.4 22:10:26 10° N 22:14:06 17° NE 22:15:22 16° NE
Mayak 1.4 22:14:17 10° N 22:15:32 18° N 22:15:32 18° N
Cosmos 2322 Rocket 4.4 22:24:41 10° N 22:28:28 18° NE 22:29:38 17° NE
Cosmos 1980 Rocket 3.5 22:31:51 10° NNW 22:35:28 35° N 22:35:28 35° N
CZ-4C R/B 3.4 22:31:42 10° NW 22:38:23 52° NE 22:38:44 52° NE
Cosmos 2082 Rocket 4.1 23:00:52 22° NE 23:00:52 22° NE 23:02:55 10° NE
ATLAS 5 CENTAUR R/B 4.0 23:20:05 22° N 23:20:05 22° N 23:22:33 10° NNE
Cosmos 1833 Rocket 4.1 23:28:31 34° NNE 23:28:31 34° NNE 23:31:40 10° NNE
CZ-2D R/B 4.5 23:30:50 10° NE 23:32:53 16° ENE 23:32:53 16° ENE
Resurs 1-4 Rocket 4.4 23:32:19 10° NE 23:34:06 15° ENE 23:34:06 15° ENE
USA 234 4.0 23:33:14 10° E 23:39:28 49° N 23:45:42 10° WNW
SL-16 R/B 3.4 23:52:44 43° ENE 23:52:44 43° ENE 23:58:22 10° N
